Location: Boleita
(10.4833°N, 66.8167°W)
Time: 04:56:26
(UTC+00:00)

Cosmos 2082 Rocket - Pass Details

Date: 03 August 2024
Orbit: 834 x 852 km, 71.0° (Epoch: 08 September)

Event Time Altitude Azimuth Distance (km) Brightness Sun altitude
Rises 23:40:18 0° 8° (N) 3,371 5.5 -12.5°
Reaches altitude 10° 23:43:21 10° 24° (NNE) 2,440 4.6 -13.2°
Maximum altitude 23:47:26 21° 71° (ENE) 1,815 3.5 -14.2°
Enters shadow 23:48:47 19° 91° (E) 1,897 3.5 -14.5°
